[[{"header":{"parameterUnit":"m.s-1","parameterCategory":1,"la1":30.2992,"la2":30.254,"lo1":-89.0895,"lo2":-89.0443,"dy":0.0025,"dx":0.0025,"nx":19,"ny":19,"refTime":"2026-03-18T21:00:00:Z","depth":0,"parameterNumber":2,"parameterNumberName":"U-component_of_WINDS"},"data":[0,0,0,-0.0389,-0.0392,-0.0534,-0.0535,-0.0713,-0.0714,0,0,0,0,0,0,0,0,0,0,0,-0.0341,-0.0342,-0.0389,-0.0392,-0.0534,-0.0535,-0.0712,-0.0714,0,0,0,0,0,0,0,0,0,0,0,-0.034,-0.0341,-0.0343,-0.0393,-0.0534,-0.0535,-0.0712,-0.0607,0,0,0,0,0,0,0,0,0,0,-0.047,-0.0418,-0.0341,-0.0343,-0.0393,-0.0534,-0.0535,-0.0602,-0.0614,-0.0645,0,-0.0668,0,-0.0694,-0.0725,-0.0726,0,0,0,-0.0398,-0.0409,-0.0452,-0.0343,-0.0395,-0.0533,-0.0472,-0.0609,-0.0622,-0.0661,-0.0671,-0.0678,-0.0697,-0.0727,-0.0727,-0.0883,-0.0883,0,0,-0.039,-0.0364,-0.0443,-0.046,-0.0434,-0.0467,-0.0476,-0.0617,-0.0628,-0.0672,-0.0682,-0.07,-0.0728,-0.0729,-0.0882,-0.0883,0,0,0,-0.0364,-0.0358,-0.0398,-0.0453,-0.0478,-0.0471,-0.0481,-0.0622,-0.0637,-0.0684,-0.0702,-0.0729,-0.0731,-0.0882,-0.0882,-0.0877,0,0,0,-0.0359,-0.0343,-0.0395,-0.038,-0.0475,-0.0551,-0.0483,-0.0627,-0.0644,-0.0701,-0.0729,-0.0732,-0.0881,-0.0882,-0.0876,-0.088,0,0,0,-0.0334,-0.034,-0.0358,-0.0378,-0.0438,-0.0549,-0.0573,-0.0631,-0.0654,-0.0726,-0.0733,-0.0881,-0.0882,-0.0876,-0.0878,-0.0912,0,0,0,-0.03,-0.0353,-0.0357,-0.0424,-0.0437,-0.0544,-0.0572,-0.0654,-0.0716,-0.073,-0.0881,-0.0882,-0.0875,-0.0878,-0.0911,-0.0935,-0.0942,0,0,-0.0353,-0.0359,-0.04,-0.0408,-0.0507,-0.0525,-0.0625,-0.0708,-0.0741,-0.0835,-0.0839,-0.0877,-0.0878,-0.0912,-0.0995,-0.1,0,0,0,-0.0408,-0.0438,-0.047,-0.0525,-0.0587,-0.0642,-0.0711,-0.0743,-0.0823,-0.0782,-0.0899,-0.0901,-0.0922,-0.0935,-0.094,-0.096,-0.0887,-0.0887,-0.0887,-0.0446,-0.0482,-0.0554,-0.0608,-0.0661,-0.0732,-0.078,-0.0835,-0.0859,-0.0886,-0.0913,-0.0959,-0.0972,-0.0976,-0.0996,-0.093,-0.093,-0.093,-0.093,-0.0526,-0.0573,-0.0602,-0.0681,-0.0721,-0.079,-0.0862,-0.0876,-0.0948,-0.0941,-0.0961,-0.0949,-0.0981,-0.1001,-0.093,-0.093,-0.093,-0.093,-0.093,-0.0554,-0.0583,-0.0618,-0.0701,-0.0763,-0.0818,-0.0884,-0.092,-0.0954,-0.0974,-0.1008,-0.1008,-0.1012,-0.0988,-0.0988,-0.0988,-0.0988,-0.0988,-0.0988,-0.0568,-0.0608,-0.0657,-0.0728,-0.0768,-0.0826,-0.09,-0.0942,-0.0998,-0.1019,-0.1019,-0.104,-0.0977,-0.0959,-0.0991,-0.099,-0.099,-0.099,-0.099,-0.0634,-0.0625,-0.0701,-0.0741,-0.0829,-0.0888,-0.0932,-0.1015,-0.1055,-0.1088,-0.1106,-0.1052,-0.1062,-0.1059,-0.1045,-0.1096,-0.1096,-0.1096,-0.1096,-0.0657,-0.0665,-0.0751,-0.0813,-0.0879,-0.0926,-0.1016,-0.1074,-0.1134,-0.1162,-0.116,-0.1145,-0.114,-0.1153,-0.1148,-0.1135,-0.1209,-0.1209,-0.1209,-0.07,-0.0716,-0.0782,-0.0837,-0.0908,-0.0969,-0.1055,-0.1128,-0.1195,-0.1214,-0.1185,-0.118,-0.1157,-0.1147,-0.1164,-0.1154,-0.1132,0,0]},{"header":{"parameterUnit":"m.s-1","parameterCategory":1,"la1":30.2992,"la2":30.254,"lo1":-89.0895,"lo2":-89.0443,"dy":0.0025,"dx":0.0025,"nx":19,"ny":19,"refTime":"2026-03-18T21:00:00:Z","depth":0,"parameterNumber":3,"parameterNumberName":"V-component_of_WINDS"},"data":[0,0,0,-1.2768,-1.2768,-1.2759,-1.2759,-1.2761,-1.2761,0,0,0,0,0,0,0,0,0,0,0,-1.2778,-1.2778,-1.2768,-1.2768,-1.2759,-1.2759,-1.2761,-1.2761,0,0,0,0,0,0,0,0,0,0,0,-1.2778,-1.2778,-1.2778,-1.2768,-1.2759,-1.2759,-1.2761,-1.2763,0,0,0,0,0,0,0,0,0,0,-1.2769,-1.2786,-1.2778,-1.2778,-1.2768,-1.2759,-1.2759,-1.2763,-1.2763,-1.2771,0,-1.2779,0,-1.277,-1.2762,-1.2762,0,0,0,-1.2762,-1.2786,-1.2777,-1.2778,-1.2768,-1.2759,-1.2761,-1.2763,-1.2763,-1.2771,-1.2779,-1.2779,-1.277,-1.2762,-1.2762,-1.2824,-1.2825,0,0,-1.2763,-1.278,-1.2777,-1.2777,-1.2778,-1.2762,-1.2761,-1.2763,-1.2773,-1.2779,-1.2778,-1.277,-1.2762,-1.2763,-1.2824,-1.2824,0,0,0,-1.2768,-1.2781,-1.2771,-1.2777,-1.2775,-1.2762,-1.2761,-1.2773,-1.2768,-1.2778,-1.277,-1.2763,-1.2763,-1.2823,-1.2824,-1.2868,0,0,0,-1.2768,-1.2784,-1.2772,-1.2783,-1.2775,-1.2773,-1.2771,-1.2768,-1.2768,-1.277,-1.2763,-1.2763,-1.2822,-1.2823,-1.2865,-1.2885,0,0,0,-1.2776,-1.2785,-1.2786,-1.2784,-1.278,-1.2773,-1.2768,-1.2768,-1.2763,-1.2762,-1.2763,-1.2822,-1.2823,-1.2863,-1.2881,-1.2907,0,0,0,-1.279,-1.2825,-1.2787,-1.2824,-1.2781,-1.28,-1.2768,-1.2782,-1.2786,-1.2763,-1.2822,-1.2824,-1.2862,-1.2879,-1.2904,-1.2931,-1.2943,0,0,-1.2844,-1.2832,-1.2852,-1.2818,-1.2849,-1.28,-1.2837,-1.2825,-1.2809,-1.282,-1.2821,-1.2866,-1.2881,-1.2906,-1.3009,-1.3019,0,0,0,-1.2876,-1.289,-1.2895,-1.29,-1.2891,-1.2886,-1.2866,-1.2861,-1.287,-1.2818,-1.2881,-1.289,-1.2904,-1.2916,-1.2924,-1.2935,-1.283,-1.283,-1.283,-1.2978,-1.2955,-1.2987,-1.2964,-1.297,-1.2949,-1.2952,-1.2942,-1.2918,-1.2934,-1.2937,-1.3002,-1.3016,-1.3023,-1.3034,-1.2949,-1.2949,-1.2949,-1.295,-1.3055,-1.3073,-1.304,-1.3059,-1.3036,-1.3052,-1.3035,-1.3017,-1.3029,-1.2997,-1.3009,-1.2976,-1.3034,-1.3043,-1.2953,-1.2952,-1.2952,-1.2951,-1.2951,-1.3119,-1.3124,-1.3118,-1.3123,-1.313,-1.3106,-1.3119,-1.3097,-1.3077,-1.3088,-1.3089,-1.3088,-1.3085,-1.309,-1.309,-1.3091,-1.3091,-1.3091,-1.3091,-1.3188,-1.318,-1.3193,-1.3188,-1.3188,-1.3187,-1.3167,-1.3168,-1.3162,-1.3146,-1.3146,-1.312,-1.3044,-1.3026,-1.3095,-1.3094,-1.3094,-1.3093,-1.3093,-1.3274,-1.3251,-1.3272,-1.3273,-1.3265,-1.3274,-1.3246,-1.3249,-1.3246,-1.3254,-1.3226,-1.3174,-1.316,-1.3153,-1.3137,-1.3231,-1.3231,-1.3231,-1.3231,-1.3328,-1.3319,-1.3335,-1.3338,-1.3339,-1.3316,-1.3341,-1.3327,-1.3309,-1.3306,-1.329,-1.3267,-1.3261,-1.3251,-1.3242,-1.3227,-1.3341,-1.3341,-1.3341,-1.3379,-1.337,-1.3395,-1.3376,-1.3369,-1.3363,-1.3386,-1.3392,-1.3366,-1.3345,-1.3303,-1.3299,-1.3262,-1.3251,-1.3229,-1.3215,-1.3187,0,0]}]]